START_TIME,STEP,MOV.,M29,t_acc.,H22,t_acc.,H26,t_acc.,H30,t_acc.
1981-08-31 00:00:32.390 ,5,0,0.,24.0,0.,24.0,0.,24.0,0.,24.0
1981-08-31 00:00:56.390 ,4,1,0.,24.0,0.,24.0,0.,24.0,0.,24.0
1981-08-31 00:01:20.390 ,4,0,0.,24.0,0.,24.0,0.,24.0,0.,24.0
1981-08-31 00:01:44.390 ,3,1,0.,24.0,0.,24.0,0.,24.0,0.,24.0
1981-08-31 00:02:08.390 ,2,1,0.,24.0,0.,24.0,0.,24.0,0.,24.0
1981-08-31 00:02:32.390 ,1,1,0.,24.0,0.,24.0,0.,24.0,0.,24.0
1981-08-31 00:02:56.390 ,0,1,0.,24.0,0.,24.0,0.,24.0,0.,24.0
1981-08-31 00:03:20.390 ,0,1,0.,24.0,0.,24.0,0.,24.0,0.,24.0
1981-08-31 00:03:44.390 ,1,1,0.,24.0,0.,24.0,0.,24.0,0.,24.0
1981-08-31 00:04:08.390 ,2,1,0.,24.0,0.,24.0,0.,24.0,0.,24.0
1981-08-31 00:04:32.390 ,3,1,0.,24.0,0.,24.0,0.,24.0,0.,24.0
1981-08-31 00:04:56.390 ,4,1,0.,24.0,0.,24.0,0.,24.0,0.,24.0
1981-08-31 00:05:20.390 ,5,1,0.,24.0,0.,24.0,0.,24.0,0.,24.0
1981-08-31 00:05:44.390 ,6,1,0.,24.0,0.,24.0,0.,24.0,0.,24.0
1981-08-31 00:06:08.390 ,7,1,0.,24.0,0.,24.0,0.,24.0,0.,24.0
1981-08-31 00:06:32.390 ,7,1,0.,24.0,0.,24.0,0.,24.0,0.,24.0
1981-08-31 00:06:56.390 ,6,1,0.,24.0,0.,24.0,0.,24.0,0.,24.0
1981-08-31 00:07:20.390 ,5,1,0.,24.0,0.,24.0,0.,24.0,0.,24.0
1981-08-31 00:07:44.390 ,4,1,0.,24.0,0.,24.0,0.,24.0,0.,24.0
1981-08-31 00:08:08.390 ,3,1,0.,24.0,0.,24.0,0.,24.0,0.,24.0
1981-08-31 00:08:32.390 ,3,0,0.,24.0,0.,24.0,0.,24.0,0.,24.0
1981-08-31 00:08:56.390 ,2,1,0.,24.0,0.,24.0,0.,24.0,0.,24.0
1981-08-31 00:09:20.390 ,2,0,0.,24.0,0.,24.0,0.,24.0,0.,24.0
1981-08-31 00:09:44.390 ,1,1,0.,24.0,0.,24.0,0.,24.0,0.,24.0
1981-08-31 00:10:08.390 ,1,0,0.,24.0,0.,24.0,0.,24.0,0.,24.0
1981-08-31 00:10:32.390 ,0,1,0.,24.0,0.,24.0,0.,24.0,0.,24.0
1981-08-31 00:10:56.390 ,0,0,0.,24.0,0.,24.0,0.,24.0,0.,24.0
1981-08-31 00:11:20.390 ,0,1,0.,24.0,0.,24.0,0.,24.0,0.,24.0
1981-08-31 00:11:44.390 ,0,0,0.,24.0,0.,24.0,0.,24.0,0.,24.0
1981-08-31 00:12:08.390 ,1,1,0.,24.0,0.,24.0,0.,24.0,0.,24.0
1981-08-31 00:12:32.390 ,1,0,0.,24.0,0.,24.0,0.,24.0,0.,24.0
1981-08-31 00:12:56.390 ,2,1,0.,24.0,0.,24.0,0.,24.0,0.,24.0
1981-08-31 00:13:20.390 ,2,0,0.,24.0,0.,24.0,0.,24.0,0.,24.0
1981-08-31 00:13:44.390 ,3,1,0.,24.0,0.,24.0,0.,24.0,0.,24.0
1981-08-31 00:14:08.390 ,3,0,0.,24.0,0.,24.0,0.,24.0,0.,24.0
1981-08-31 00:14:32.390 ,4,1,0.,24.0,0.,24.0,0.,24.0,0.,24.0
1981-08-31 00:14:56.390 ,4,0,0.,24.0,0.,24.0,0.,24.0,0.,24.0
1981-08-31 00:18:32.390 ,0,0,0.,24.0,0.,24.0,0.,24.0,0.,24.0
1981-08-31 00:18:56.390 ,0,0,0.,24.0,0.,24.0,0.,24.0,0.,24.0
1981-08-31 00:19:20.390 ,5,1,0.,24.0,0.,24.0,0.,24.0,0.,24.0
1981-08-31 00:19:44.390 ,5,0,0.,24.0,0.,24.0,0.,24.0,0.,24.0
1981-08-31 00:20:08.390 ,4,1,0.,24.0,0.,24.0,0.,24.0,0.,24.0
1981-08-31 00:20:32.390 ,4,0,0.,24.0,0.,24.0,0.,24.0,0.,24.0
1981-08-31 00:20:56.390 ,3,1,0.,24.0,0.,24.0,0.,24.0,0.,24.0
1981-08-31 00:21:20.390 ,2,1,0.,24.0,0.,24.0,0.,24.0,0.,24.0
1981-08-31 00:21:44.390 ,1,1,0.,24.0,0.,24.0,0.,24.0,0.,24.0
1981-08-31 00:22:08.390 ,0,1,0.,24.0,0.,24.0,0.,24.0,0.,24.0
1981-08-31 00:22:32.390 ,0,1,0.,24.0,0.,24.0,0.,24.0,0.,24.0
1981-08-31 00:22:56.390 ,1,1,0.,24.0,0.,24.0,0.,24.0,0.,24.0
1981-08-31 00:23:20.390 ,2,1,0.,24.0,0.,24.0,0.,24.0,0.,24.0
1981-08-31 00:23:44.390 ,3,1,0.,24.0,0.,24.0,0.,24.0,0.,24.0
1981-08-31 00:24:08.390 ,4,1,0.,24.0,0.,24.0,0.,24.0,0.,24.0
1981-08-31 00:24:32.390 ,5,1,0.,24.0,0.,24.0,0.,24.0,0.,24.0
1981-08-31 00:24:56.390 ,6,1,0.,24.0,0.,24.0,0.,24.0,0.,24.0
1981-08-31 00:25:20.390 ,7,1,0.,24.0,0.,24.0,0.,24.0,0.,24.0
1981-08-31 00:25:44.390 ,7,1,0.,24.0,0.,24.0,0.,24.0,0.,24.0
1981-08-31 00:26:08.390 ,6,1,0.,24.0,0.,24.0,0.,24.0,0.,24.0
1981-08-31 00:26:32.390 ,5,1,0.,24.0,0.,24.0,0.,24.0,0.,24.0
1981-08-31 00:26:56.390 ,4,1,0.,24.0,0.,24.0,0.,24.0,0.,24.0
1981-08-31 00:27:20.390 ,3,1,0.,24.0,0.,24.0,0.,24.0,0.,24.0
1981-08-31 00:27:44.390 ,3,0,0.,24.0,0.,24.0,0.,24.0,0.,24.0
1981-08-31 00:28:08.390 ,2,1,0.,24.0,0.,24.0,0.,24.0,0.,24.0
1981-08-31 00:28:32.390 ,2,0,0.,24.0,0.,24.0,0.,24.0,0.,24.0
1981-08-31 00:29:20.390 ,1,0,0.,24.0,0.,24.0,0.,24.0,0.,24.0
1981-08-31 00:29:44.390 ,0,1,0.,24.0,0.,24.0,0.,24.0,0.,24.0
1981-08-31 00:30:08.390 ,0,0,0.,24.0,0.,24.0,0.,24.0,0.,24.0
1981-08-31 00:30:32.390 ,0,1,0.,24.0,0.,24.0,0.,24.0,0.,24.0
1981-08-31 00:30:56.390 ,0,0,0.,24.0,0.,24.0,0.,24.0,0.,24.0
1981-08-31 00:31:20.390 ,1,1,0.,24.0,0.,24.0,0.,24.0,0.,24.0
1981-08-31 00:31:44.390 ,1,0,0.,24.0,0.,24.0,0.,24.0,0.,24.0
1981-08-31 00:32:08.390 ,2,1,0.,24.0,0.,24.0,0.,24.0,0.,24.0
1981-08-31 00:32:32.390 ,2,0,0.,24.0,0.,24.0,0.,24.0,0.,24.0
1981-08-31 00:32:56.390 ,3,1,0.,24.0,0.,24.0,0.,24.0,0.,24.0
1981-08-31 00:33:20.390 ,3,0,0.,24.0,0.,24.0,0.,24.0,0.,24.0
1981-08-31 00:33:44.390 ,4,1,0.,24.0,0.,24.0,0.,24.0,0.,24.0
1981-08-31 00:34:08.390 ,4,0,0.,24.0,0.,24.0,0.,24.0,0.,24.0
1981-08-31 00:34:32.390 ,5,1,0.,24.0,0.,24.0,0.,24.0,0.,24.0
1981-08-31 00:34:56.390 ,5,0,0.,24.0,0.,24.0,0.,24.0,0.,24.0
1981-08-31 00:35:20.390 ,6,1,0.,24.0,0.,24.0,0.,24.0,0.,24.0
1981-08-31 00:35:44.390 ,6,0,0.,24.0,0.,24.0,0.,24.0,0.,24.0
1981-08-31 00:36:08.390 ,7,1,0.,24.0,0.,24.0,0.,24.0,0.,24.0
1981-08-31 00:36:32.390 ,7,0,0.,24.0,0.,24.0,0.,24.0,0.,24.0
1981-08-31 00:36:56.390 ,7,1,0.,24.0,0.,24.0,0.,24.0,0.,24.0
1981-08-31 00:37:20.390 ,7,0,0.,24.0,0.,24.0,0.,24.0,0.,24.0
1981-08-31 00:37:44.390 ,6,1,0.,24.0,0.,24.0,0.,24.0,0.,24.0
1981-08-31 00:38:08.390 ,6,0,0.,24.0,0.,24.0,0.,24.0,0.,24.0
1981-08-31 00:38:32.390 ,5,1,0.,24.0,0.,24.0,0.,24.0,0.,24.0
1981-08-31 00:38:56.390 ,5,0,0.,24.0,0.,24.0,0.,24.0,0.,24.0
1981-08-31 00:39:20.390 ,4,1,0.,24.0,0.,24.0,0.,24.0,0.,24.0
1981-08-31 00:39:44.390 ,4,0,0.,24.0,0.,24.0,0.,24.0,0.,24.0
1981-08-31 00:40:08.390 ,3,1,0.,24.0,0.,24.0,0.,24.0,0.,24.0
1981-08-31 00:40:32.390 ,2,1,0.,24.0,0.,24.0,0.,24.0,0.,24.0
1981-08-31 00:40:56.390 ,1,1,0.,24.0,0.,24.0,0.,24.0,0.,24.0
1981-08-31 00:41:20.390 ,0,1,0.,24.0,0.,24.0,0.,24.0,0.,24.0
1981-08-31 00:41:44.390 ,0,1,0.,24.0,0.,24.0,0.,24.0,0.,24.0
1981-08-31 00:42:08.390 ,1,1,1.,24.0,0.,24.0,0.,24.0,0.,24.0
1981-08-31 00:42:32.390 ,2,1,0.,24.0,0.,24.0,0.,24.0,0.,24.0
1981-08-31 00:42:56.390 ,3,1,0.,24.0,0.,24.0,0.,24.0,0.,24.0
1981-08-31 00:43:20.390 ,4,1,0.,24.0,0.,24.0,0.,24.0,0.,24.0
1981-08-31 00:43:44.390 ,5,1,1.,24.0,0.,24.0,0.,24.0,0.,24.0
1981-08-31 00:44:08.390 ,6,1,0.,24.0,0.,24.0,0.,24.0,0.,24.0
1981-08-31 00:44:32.390 ,7,1,0.,24.0,0.,24.0,0.,24.0,0.,24.0
1981-08-31 00:44:56.390 ,7,1,0.,24.0,0.,24.0,0.,24.0,0.,24.0
1981-08-31 00:45:20.390 ,6,1,0.,24.0,0.,24.0,0.,24.0,0.,24.0
1981-08-31 00:45:44.390 ,5,1,0.,24.0,0.,24.0,0.,24.0,0.,24.0
1981-08-31 00:46:08.390 ,4,1,0.,24.0,0.,24.0,0.,24.0,0.,24.0
1981-08-31 00:46:32.390 ,3,1,0.,24.0,0.,24.0,0.,24.0,0.,24.0
1981-08-31 00:46:56.390 ,3,0,0.,24.0,0.,24.0,0.,24.0,0.,24.0
1981-08-31 00:47:20.390 ,2,1,0.,24.0,0.,24.0,0.,24.0,0.,24.0
1981-08-31 00:47:44.390 ,2,0,0.,24.0,0.,24.0,0.,24.0,0.,24.0
1981-08-31 00:48:08.390 ,1,1,0.,24.0,0.,24.0,0.,24.0,0.,24.0
1981-08-31 00:48:32.390 ,1,0,0.,24.0,0.,24.0,0.,24.0,0.,24.0
1981-08-31 00:48:56.390 ,0,1,0.,24.0,0.,24.0,0.,24.0,0.,24.0
1981-08-31 00:49:20.390 ,0,0,0.,24.0,0.,24.0,0.,24.0,0.,24.0
1981-08-31 00:52:08.390 ,0,0,0.,24.0,0.,24.0,0.,24.0,0.,24.0
1981-08-31 00:52:32.390 ,0,0,0.,24.0,0.,24.0,0.,24.0,0.,24.0
1981-08-31 00:52:56.390 ,4,1,0.,24.0,0.,24.0,0.,24.0,0.,24.0
1981-08-31 00:53:20.390 ,4,0,0.,24.0,0.,24.0,0.,24.0,0.,24.0
1981-08-31 00:53:44.390 ,5,1,0.,24.0,0.,24.0,0.,24.0,0.,24.0
1981-08-31 00:54:08.390 ,5,0,0.,24.0,0.,24.0,0.,24.0,0.,24.0
1981-08-31 00:54:32.390 ,6,1,0.,24.0,0.,24.0,0.,24.0,0.,24.0
1981-08-31 00:54:56.390 ,6,0,0.,24.0,0.,24.0,0.,24.0,0.,24.0
1981-08-31 00:55:20.390 ,7,1,0.,24.0,0.,24.0,0.,24.0,0.,24.0
1981-08-31 00:55:44.390 ,7,0,0.,24.0,0.,24.0,0.,24.0,0.,24.0
1981-08-31 00:56:08.390 ,7,1,0.,24.0,0.,24.0,0.,24.0,0.,24.0
1981-08-31 00:56:32.390 ,7,0,0.,24.0,0.,24.0,0.,24.0,0.,24.0
1981-08-31 00:56:56.390 ,6,1,0.,24.0,0.,24.0,0.,24.0,0.,24.0
1981-08-31 00:57:20.390 ,6,0,0.,24.0,0.,24.0,0.,24.0,0.,24.0
1981-08-31 00:57:44.390 ,5,1,0.,24.0,0.,24.0,0.,24.0,0.,24.0
1981-08-31 00:58:08.390 ,5,0,0.,24.0,0.,24.0,0.,24.0,0.,24.0
1981-08-31 00:58:32.390 ,4,1,0.,24.0,0.,24.0,0.,24.0,0.,24.0
1981-08-31 00:58:56.390 ,4,0,0.,24.0,0.,24.0,0.,24.0,0.,24.0
1981-08-31 00:59:20.390 ,3,1,0.,24.0,0.,24.0,0.,24.0,0.,24.0
1981-08-31 00:59:44.390 ,2,1,0.,24.0,0.,24.0,0.,24.0,0.,24.0
1981-08-31 01:00:08.390 ,1,1,0.,24.0,0.,24.0,0.,24.0,0.,24.0
1981-08-31 01:00:32.390 ,0,1,0.,24.0,0.,24.0,0.,24.0,0.,24.0
1981-08-31 01:00:56.390 ,0,1,0.,24.0,0.,24.0,0.,24.0,0.,24.0
1981-08-31 01:01:20.390 ,1,1,0.,24.0,0.,24.0,0.,24.0,0.,24.0
1981-08-31 01:01:44.390 ,2,1,0.,24.0,0.,24.0,0.,24.0,0.,24.0
1981-08-31 01:02:08.390 ,3,1,0.,24.0,0.,24.0,0.,24.0,0.,24.0
1981-08-31 01:02:32.390 ,4,1,0.,24.0,0.,24.0,0.,24.0,0.,24.0
1981-08-31 01:02:56.390 ,5,1,0.,24.0,0.,24.0,0.,24.0,0.,24.0
1981-08-31 01:03:20.390 ,6,1,0.,24.0,0.,24.0,0.,24.0,0.,24.0
1981-08-31 01:03:44.390 ,7,1,0.,24.0,0.,24.0,0.,24.0,0.,24.0
1981-08-31 01:04:08.390 ,7,1,0.,24.0,0.,24.0,0.,24.0,0.,24.0
1981-08-31 01:04:32.390 ,6,1,1.,24.0,0.,24.0,0.,24.0,0.,24.0
1981-08-31 01:04:56.390 ,5,1,0.,24.0,0.,24.0,0.,24.0,0.,24.0
1981-08-31 01:05:20.390 ,4,1,0.,24.0,0.,24.0,0.,24.0,0.,24.0
1981-08-31 01:05:44.390 ,3,1,0.,24.0,0.,24.0,0.,24.0,0.,24.0
1981-08-31 01:06:08.390 ,3,0,0.,24.0,0.,24.0,0.,24.0,0.,24.0
1981-08-31 01:06:32.390 ,2,1,0.,24.0,0.,24.0,0.,24.0,0.,24.0
1981-08-31 01:06:56.390 ,2,0,0.,24.0,0.,24.0,0.,24.0,0.,24.0
1981-08-31 01:07:20.390 ,1,1,0.,24.0,0.,24.0,0.,24.0,0.,24.0
1981-08-31 01:07:44.390 ,1,0,0.,24.0,0.,24.0,0.,24.0,0.,24.0
1981-08-31 01:08:08.390 ,0,1,0.,24.0,0.,24.0,0.,24.0,0.,24.0
1981-08-31 01:08:32.390 ,0,0,0.,24.0,0.,24.0,0.,24.0,0.,24.0
1981-08-31 01:09:44.390 ,0,0,0.,24.0,0.,24.0,0.,24.0,0.,24.0
1981-08-31 01:10:08.390 ,0,0,0.,24.0,0.,24.0,0.,24.0,0.,24.0
1981-08-31 01:10:32.390 ,2,1,0.,24.0,0.,24.0,0.,24.0,0.,24.0
1981-08-31 01:10:56.390 ,2,0,0.,24.0,0.,24.0,0.,24.0,0.,24.0
1981-08-31 01:11:20.390 ,3,1,0.,24.0,0.,24.0,0.,24.0,0.,24.0
1981-08-31 01:11:44.390 ,3,0,0.,24.0,0.,24.0,0.,24.0,0.,24.0
1981-08-31 01:12:08.390 ,4,1,0.,24.0,0.,24.0,0.,24.0,0.,24.0
1981-08-31 01:12:32.390 ,4,0,0.,24.0,0.,24.0,0.,24.0,0.,24.0
1981-08-31 01:12:56.390 ,5,1,0.,24.0,0.,24.0,0.,24.0,0.,24.0
1981-08-31 01:13:20.390 ,5,0,0.,24.0,0.,24.0,0.,24.0,0.,24.0
1981-08-31 01:13:44.390 ,6,1,0.,24.0,0.,24.0,0.,24.0,0.,24.0
1981-08-31 01:14:08.390 ,6,0,0.,24.0,0.,24.0,0.,24.0,0.,24.0
1981-08-31 01:14:32.390 ,7,1,0.,24.0,0.,24.0,0.,24.0,0.,24.0
1981-08-31 01:14:56.390 ,7,0,0.,24.0,0.,24.0,0.,24.0,0.,24.0
1981-08-31 01:15:20.390 ,7,1,0.,24.0,0.,24.0,0.,24.0,0.,24.0
1981-08-31 01:15:44.390 ,7,0,0.,24.0,0.,24.0,0.,24.0,0.,24.0
1981-08-31 01:16:08.390 ,6,1,0.,24.0,0.,24.0,0.,24.0,0.,24.0
1981-08-31 01:16:32.390 ,6,0,0.,24.0,0.,24.0,0.,24.0,0.,24.0
1981-08-31 01:16:56.390 ,5,1,1.,24.0,0.,24.0,0.,24.0,0.,24.0
1981-08-31 01:17:20.390 ,5,0,0.,24.0,0.,24.0,0.,24.0,0.,24.0
1981-08-31 01:17:44.390 ,4,1,0.,24.0,0.,24.0,0.,24.0,0.,24.0
1981-08-31 01:18:08.390 ,4,0,0.,24.0,0.,24.0,0.,24.0,0.,24.0
1981-08-31 01:18:32.390 ,3,1,0.,24.0,0.,24.0,0.,24.0,0.,24.0
1981-08-31 01:18:56.390 ,2,1,0.,24.0,0.,24.0,0.,24.0,0.,24.0
1981-08-31 01:19:20.390 ,1,1,0.,24.0,0.,24.0,0.,24.0,0.,24.0
1981-08-31 01:19:44.390 ,0,1,0.,24.0,0.,24.0,0.,24.0,0.,24.0
1981-08-31 01:20:08.390 ,0,1,0.,24.0,0.,24.0,0.,24.0,0.,24.0
1981-08-31 01:20:32.390 ,1,1,0.,24.0,0.,24.0,0.,24.0,0.,24.0
1981-08-31 01:20:56.390 ,2,1,0.,24.0,0.,24.0,0.,24.0,0.,24.0
1981-08-31 01:21:20.390 ,3,1,0.,24.0,0.,24.0,0.,24.0,0.,24.0
1981-08-31 01:21:44.390 ,4,1,0.,24.0,0.,24.0,0.,24.0,0.,24.0
1981-08-31 01:22:08.390 ,5,1,0.,24.0,0.,24.0,0.,24.0,0.,24.0
1981-08-31 01:22:32.390 ,6,1,0.,24.0,0.,24.0,0.,24.0,0.,24.0
1981-08-31 01:22:56.390 ,7,1,0.,24.0,0.,24.0,0.,24.0,0.,24.0
1981-08-31 01:23:20.390 ,7,1,0.,24.0,0.,24.0,0.,24.0,0.,24.0
1981-08-31 01:23:44.390 ,6,1,0.,24.0,0.,24.0,0.,24.0,0.,24.0
1981-08-31 01:24:08.390 ,5,1,0.,24.0,0.,24.0,0.,24.0,0.,24.0
1981-08-31 01:24:32.390 ,4,1,0.,24.0,0.,24.0,0.,24.0,0.,24.0
1981-08-31 01:24:56.390 ,3,1,0.,24.0,0.,24.0,0.,24.0,0.,24.0
1981-08-31 01:25:20.390 ,3,0,0.,24.0,0.,24.0,0.,24.0,0.,24.0
1981-08-31 01:25:44.390 ,2,1,0.,24.0,0.,24.0,0.,24.0,0.,24.0
1981-08-31 01:26:08.390 ,2,0,0.,24.0,0.,24.0,0.,24.0,0.,24.0
1981-08-31 01:26:32.390 ,1,1,0.,24.0,0.,24.0,0.,24.0,0.,24.0
1981-08-31 01:26:56.390 ,1,0,0.,24.0,0.,24.0,0.,24.0,0.,24.0
1981-08-31 01:27:20.390 ,0,1,0.,24.0,0.,24.0,0.,24.0,0.,24.0
1981-08-31 01:27:44.390 ,0,0,0.,24.0,0.,24.0,0.,24.0,0.,24.0
1981-08-31 01:28:08.390 ,0,1,0.,24.0,0.,24.0,0.,24.0,0.,24.0
1981-08-31 01:28:32.390 ,0,0,0.,24.0,0.,24.0,0.,24.0,0.,24.0
1981-08-31 01:28:56.390 ,1,1,0.,24.0,0.,24.0,0.,24.0,0.,24.0
1981-08-31 01:29:20.390 ,1,0,0.,24.0,0.,24.0,0.,24.0,0.,24.0
1981-08-31 01:29:44.390 ,2,1,0.,24.0,0.,24.0,0.,24.0,0.,24.0
1981-08-31 01:30:08.390 ,2,0,0.,24.0,0.,24.0,0.,24.0,0.,24.0
1981-08-31 01:30:32.390 ,3,1,0.,24.0,0.,24.0,0.,24.0,0.,24.0
1981-08-31 01:30:56.390 ,3,0,0.,24.0,0.,24.0,0.,24.0,0.,24.0
1981-08-31 01:31:20.390 ,4,1,0.,24.0,0.,24.0,0.,24.0,0.,24.0
1981-08-31 01:31:44.390 ,4,0,0.,24.0,0.,24.0,0.,24.0,0.,24.0
1981-08-31 01:32:08.390 ,5,1,0.,24.0,0.,24.0,0.,24.0,0.,24.0
1981-08-31 01:32:32.390 ,5,0,0.,24.0,0.,24.0,0.,24.0,0.,24.0
1981-08-31 01:32:56.390 ,6,1,0.,24.0,0.,24.0,0.,24.0,0.,24.0
1981-08-31 01:33:20.390 ,6,0,0.,24.0,0.,24.0,0.,24.0,0.,24.0
1981-08-31 01:33:44.390 ,7,1,0.,24.0,0.,24.0,0.,24.0,0.,24.0
1981-08-31 01:34:08.390 ,7,0,0.,24.0,0.,24.0,0.,24.0,0.,24.0
1981-08-31 01:34:32.390 ,7,1,0.,24.0,0.,24.0,0.,24.0,0.,24.0
1981-08-31 01:34:56.390 ,7,0,0.,24.0,0.,24.0,0.,24.0,0.,24.0
1981-08-31 01:35:20.390 ,6,1,0.,24.0,0.,24.0,0.,24.0,0.,24.0
1981-08-31 01:35:44.390 ,6,0,0.,24.0,0.,24.0,0.,24.0,0.,24.0
1981-08-31 01:36:08.390 ,5,1,0.,24.0,0.,24.0,0.,24.0,0.,24.0
1981-08-31 01:36:32.390 ,5,0,0.,24.0,0.,24.0,0.,24.0,0.,24.0
1981-08-31 01:36:56.390 ,4,1,0.,24.0,0.,24.0,0.,24.0,0.,24.0
1981-08-31 01:37:20.390 ,4,0,0.,24.0,0.,24.0,0.,24.0,0.,24.0
1981-08-31 01:37:44.390 ,3,1,0.,24.0,0.,24.0,0.,24.0,0.,24.0
1981-08-31 01:38:08.390 ,2,1,0.,24.0,0.,24.0,0.,24.0,0.,24.0
1981-08-31 01:38:32.390 ,1,1,0.,24.0,0.,24.0,0.,24.0,0.,24.0
1981-08-31 01:38:56.390 ,0,1,0.,24.0,0.,24.0,0.,24.0,0.,24.0
1981-08-31 01:39:20.390 ,0,1,0.,24.0,0.,24.0,0.,24.0,0.,24.0
1981-08-31 01:39:44.390 ,1,1,0.,24.0,0.,24.0,0.,24.0,0.,24.0
1981-08-31 01:40:08.390 ,2,1,0.,24.0,0.,24.0,0.,24.0,0.,24.0
1981-08-31 01:40:32.390 ,3,1,0.,24.0,0.,24.0,0.,24.0,0.,24.0
1981-08-31 01:40:56.390 ,4,1,0.,24.0,0.,24.0,0.,24.0,0.,24.0
1981-08-31 01:41:20.390 ,5,1,0.,24.0,0.,24.0,0.,24.0,0.,24.0
1981-08-31 01:41:44.390 ,6,1,0.,24.0,0.,24.0,0.,24.0,0.,24.0
1981-08-31 01:42:08.390 ,7,1,0.,24.0,0.,24.0,0.,24.0,0.,24.0
1981-08-31 01:42:32.390 ,7,1,0.,24.0,0.,24.0,0.,24.0,0.,24.0
1981-08-31 01:42:56.390 ,6,1,0.,24.0,0.,24.0,0.,24.0,0.,24.0
1981-08-31 01:43:20.390 ,5,1,0.,24.0,0.,24.0,0.,24.0,0.,24.0
1981-08-31 01:43:44.390 ,4,1,0.,24.0,0.,24.0,0.,24.0,0.,24.0
1981-08-31 01:44:08.390 ,3,1,0.,24.0,0.,24.0,0.,24.0,0.,24.0
1981-08-31 01:44:32.390 ,3,0,0.,24.0,0.,24.0,0.,24.0,0.,24.0
1981-08-31 01:44:56.390 ,2,1,0.,24.0,0.,24.0,0.,24.0,0.,24.0
1981-08-31 01:45:20.390 ,2,0,0.,24.0,0.,24.0,0.,24.0,0.,24.0
1981-08-31 01:45:44.390 ,1,1,0.,24.0,0.,24.0,0.,24.0,0.,24.0
1981-08-31 01:46:08.390 ,1,0,0.,24.0,0.,24.0,0.,24.0,0.,24.0
1981-08-31 01:46:32.390 ,0,1,0.,24.0,0.,24.0,0.,24.0,0.,24.0
1981-08-31 01:46:56.390 ,0,0,0.,24.0,0.,24.0,0.,24.0,0.,24.0
1981-08-31 01:47:20.390 ,0,1,0.,24.0,0.,24.0,0.,24.0,0.,24.0
1981-08-31 01:47:44.390 ,0,0,0.,24.0,0.,24.0,0.,24.0,0.,24.0
1981-08-31 01:48:08.390 ,1,1,0.,24.0,0.,24.0,0.,24.0,0.,24.0
1981-08-31 01:48:32.390 ,1,0,0.,24.0,0.,24.0,0.,24.0,0.,24.0
1981-08-31 01:48:56.390 ,2,1,0.,24.0,0.,24.0,0.,24.0,0.,24.0
1981-08-31 01:49:20.390 ,2,0,0.,24.0,0.,24.0,0.,24.0,0.,24.0
1981-08-31 01:49:44.390 ,3,1,0.,24.0,0.,24.0,0.,24.0,0.,24.0
1981-08-31 01:50:08.390 ,3,0,0.,24.0,0.,24.0,0.,24.0,0.,24.0
1981-08-31 01:50:32.390 ,4,1,0.,24.0,0.,24.0,0.,24.0,0.,24.0
1981-08-31 01:50:56.390 ,4,0,1.,24.0,0.,24.0,0.,24.0,0.,24.0
1981-08-31 01:51:20.390 ,5,1,0.,24.0,0.,24.0,0.,24.0,0.,24.0
1981-08-31 01:51:44.390 ,5,0,0.,24.0,0.,24.0,0.,24.0,0.,24.0
1981-08-31 01:52:08.390 ,6,1,0.,24.0,0.,24.0,0.,24.0,0.,24.0
1981-08-31 01:52:32.390 ,6,0,0.,24.0,0.,24.0,0.,24.0,0.,24.0
1981-08-31 01:52:56.390 ,7,1,0.,24.0,0.,24.0,0.,24.0,0.,24.0
1981-08-31 01:53:20.390 ,7,0,0.,24.0,0.,24.0,0.,24.0,0.,24.0
1981-08-31 01:53:44.390 ,7,1,0.,24.0,0.,24.0,0.,24.0,0.,24.0
1981-08-31 01:54:08.390 ,7,0,0.,24.0,0.,24.0,0.,24.0,0.,24.0
1981-08-31 01:54:32.390 ,6,1,0.,24.0,0.,24.0,0.,24.0,0.,24.0
1981-08-31 01:54:56.390 ,6,0,0.,24.0,0.,24.0,0.,24.0,0.,24.0
1981-08-31 01:55:20.390 ,5,1,0.,24.0,0.,24.0,0.,24.0,0.,24.0
1981-08-31 01:55:44.390 ,5,0,0.,24.0,0.,24.0,0.,24.0,0.,24.0
1981-08-31 01:56:08.390 ,4,1,0.,24.0,0.,24.0,0.,24.0,0.,24.0
1981-08-31 01:56:32.390 ,4,0,0.,24.0,0.,24.0,0.,24.0,0.,24.0
1981-08-31 01:56:56.390 ,3,1,0.,24.0,0.,24.0,0.,24.0,0.,24.0
1981-08-31 01:57:20.390 ,2,1,0.,24.0,0.,24.0,0.,24.0,0.,24.0
1981-08-31 01:57:44.390 ,1,1,0.,24.0,0.,24.0,0.,24.0,0.,24.0
1981-08-31 01:58:08.390 ,0,1,0.,24.0,0.,24.0,0.,24.0,0.,24.0
1981-08-31 01:58:32.390 ,0,1,0.,24.0,0.,24.0,0.,24.0,0.,24.0
1981-08-31 01:58:56.390 ,1,1,0.,24.0,0.,24.0,0.,24.0,0.,24.0
1981-08-31 01:59:20.390 ,2,1,0.,24.0,0.,24.0,0.,24.0,0.,24.0
1981-08-31 01:59:44.390 ,3,1,0.,24.0,0.,24.0,0.,24.0,0.,24.0
1981-08-31 02:00:08.390 ,4,1,0.,24.0,0.,24.0,0.,24.0,0.,24.0
1981-08-31 02:00:32.390 ,5,1,0.,24.0,0.,24.0,0.,24.0,0.,24.0
1981-08-31 02:00:56.390 ,6,1,0.,24.0,0.,24.0,0.,24.0,0.,24.0
1981-08-31 02:01:20.390 ,7,1,0.,24.0,0.,24.0,0.,24.0,0.,24.0
1981-08-31 02:01:44.390 ,7,1,0.,24.0,0.,24.0,0.,24.0,0.,24.0
1981-08-31 02:02:08.390 ,6,1,0.,24.0,0.,24.0,0.,24.0,0.,24.0
1981-08-31 02:02:32.390 ,5,1,0.,24.0,0.,24.0,0.,24.0,0.,24.0
1981-08-31 02:02:56.390 ,4,1,0.,24.0,0.,24.0,0.,24.0,0.,24.0
1981-08-31 02:03:20.390 ,3,1,0.,24.0,0.,24.0,0.,24.0,0.,24.0
1981-08-31 02:03:44.390 ,3,0,0.,24.0,0.,24.0,0.,24.0,0.,24.0
1981-08-31 02:04:08.390 ,2,1,0.,24.0,0.,24.0,0.,24.0,0.,24.0
1981-08-31 02:04:32.380 ,2,0,0.,24.0,0.,24.0,0.,24.0,0.,24.0
1981-08-31 02:04:56.380 ,1,1,0.,24.0,0.,24.0,0.,24.0,0.,24.0
1981-08-31 02:05:20.380 ,1,0,0.,24.0,0.,24.0,0.,24.0,0.,24.0
1981-08-31 02:05:44.380 ,0,1,0.,24.0,0.,24.0,0.,24.0,0.,24.0
1981-08-31 02:06:08.380 ,0,0,0.,24.0,0.,24.0,0.,24.0,0.,24.0
1981-08-31 02:06:32.380 ,0,0,,0,,0,,0,,0
1981-08-31 02:06:56.380 ,0,0,0.,24.0,0.,24.0,0.,24.0,0.,24.0
1981-08-31 02:07:20.380 ,1,1,0.,24.0,0.,24.0,0.,24.0,0.,24.0
1981-08-31 02:07:44.380 ,1,0,0.,24.0,0.,24.0,0.,24.0,0.,24.0
1981-08-31 02:08:08.380 ,2,1,0.,24.0,0.,24.0,0.,24.0,0.,24.0
1981-08-31 02:08:32.390 ,2,0,0.,24.0,0.,24.0,0.,24.0,0.,24.0
1981-08-31 02:08:56.390 ,3,1,0.,24.0,0.,24.0,0.,24.0,0.,24.0
1981-08-31 02:09:20.390 ,3,0,0.,24.0,0.,24.0,0.,24.0,0.,24.0
1981-08-31 02:09:44.390 ,4,1,0.,24.0,0.,24.0,0.,24.0,0.,24.0
1981-08-31 02:10:08.390 ,4,0,0.,24.0,0.,24.0,0.,24.0,0.,24.0
1981-08-31 02:10:32.390 ,5,1,0.,24.0,0.,24.0,0.,24.0,0.,24.0
1981-08-31 02:10:56.390 ,5,0,0.,24.0,0.,24.0,0.,24.0,0.,24.0
1981-08-31 02:11:20.390 ,6,1,0.,24.0,0.,24.0,0.,24.0,0.,24.0
1981-08-31 02:11:44.390 ,6,0,0.,24.0,0.,24.0,0.,24.0,0.,24.0
1981-08-31 02:12:08.390 ,7,1,0.,24.0,0.,24.0,0.,24.0,0.,24.0
1981-08-31 02:12:32.390 ,7,0,0.,24.0,0.,24.0,0.,24.0,0.,24.0
1981-08-31 02:12:56.390 ,7,1,0.,24.0,0.,24.0,0.,24.0,0.,24.0
1981-08-31 02:13:20.390 ,7,0,0.,24.0,0.,24.0,0.,24.0,0.,24.0
1981-08-31 02:13:44.380 ,6,1,0.,24.0,0.,24.0,0.,24.0,0.,24.0
1981-08-31 02:14:08.380 ,6,0,0.,24.0,0.,24.0,0.,24.0,0.,24.0
1981-08-31 02:14:32.380 ,5,1,0.,24.0,0.,24.0,0.,24.0,0.,24.0
1981-08-31 02:14:56.380 ,5,0,0.,24.0,0.,24.0,0.,24.0,0.,24.0
1981-08-31 02:15:20.380 ,4,1,0.,24.0,0.,24.0,0.,24.0,0.,24.0
1981-08-31 02:15:44.380 ,4,0,0.,24.0,0.,24.0,0.,24.0,0.,24.0
1981-08-31 02:16:08.380 ,3,1,0.,24.0,0.,24.0,0.,24.0,0.,24.0
1981-08-31 02:16:32.380 ,2,1,0.,24.0,0.,24.0,0.,24.0,0.,24.0
1981-08-31 02:16:56.380 ,1,1,0.,24.0,0.,24.0,0.,24.0,0.,24.0
1981-08-31 02:17:20.380 ,0,1,0.,24.0,0.,24.0,0.,24.0,0.,24.0
1981-08-31 02:17:44.380 ,0,1,0.,24.0,0.,24.0,0.,24.0,0.,24.0
1981-08-31 02:18:08.380 ,1,1,0.,24.0,0.,24.0,0.,24.0,0.,24.0
1981-08-31 02:18:32.380 ,2,1,0.,24.0,0.,24.0,0.,24.0,0.,24.0
1981-08-31 02:18:56.380 ,0,0,0.,24.0,0.,24.0,0.,24.0,0.,24.0
1981-08-31 02:20:02.380 ,0,0,,0,,0,,0,,0
1981-08-31 02:20:08.380 ,6,1,0.,24.0,0.,24.0,0.,24.0,0.,24.0
1981-08-31 02:20:32.380 ,7,1,0.,24.0,0.,24.0,0.,24.0,0.,24.0
1981-08-31 02:20:56.380 ,7,1,0.,24.0,0.,24.0,0.,24.0,0.,24.0
1981-08-31 02:21:20.380 ,6,1,0.,24.0,0.,24.0,0.,24.0,0.,24.0
1981-08-31 02:21:44.380 ,5,1,0.,24.0,0.,24.0,0.,24.0,0.,24.0
1981-08-31 02:22:08.380 ,4,1,0.,24.0,0.,24.0,0.,24.0,0.,24.0
1981-08-31 02:22:32.380 ,3,1,0.,24.0,0.,24.0,0.,24.0,0.,24.0
1981-08-31 02:22:56.380 ,3,0,0.,24.0,0.,24.0,0.,24.0,0.,24.0
1981-08-31 02:23:20.380 ,2,1,0.,24.0,0.,24.0,0.,24.0,0.,24.0
1981-08-31 02:23:44.380 ,2,0,0.,24.0,0.,24.0,0.,24.0,0.,24.0
1981-08-31 02:24:08.380 ,1,1,0.,24.0,0.,24.0,0.,24.0,0.,24.0
1981-08-31 02:24:32.380 ,1,0,0.,24.0,0.,24.0,0.,24.0,0.,24.0
1981-08-31 02:24:56.380 ,0,1,0.,24.0,0.,24.0,0.,24.0,0.,24.0
1981-08-31 02:25:20.380 ,0,0,0.,24.0,0.,24.0,0.,24.0,0.,24.0
1981-08-31 02:25:44.380 ,0,1,0.,24.0,0.,24.0,0.,24.0,0.,24.0
1981-08-31 02:26:08.380 ,0,0,0.,24.0,0.,24.0,0.,24.0,0.,24.0
1981-08-31 02:26:32.380 ,1,1,0.,24.0,0.,24.0,0.,24.0,0.,24.0
1981-08-31 02:26:56.380 ,1,0,0.,24.0,0.,24.0,0.,24.0,0.,24.0
1981-08-31 02:27:20.380 ,2,1,0.,24.0,0.,24.0,0.,24.0,0.,24.0
1981-08-31 02:27:44.380 ,2,0,0.,24.0,0.,24.0,0.,24.0,0.,24.0
1981-08-31 02:28:08.380 ,3,1,0.,24.0,0.,24.0,0.,24.0,0.,24.0
1981-08-31 02:28:32.380 ,3,0,0.,24.0,0.,24.0,0.,24.0,0.,24.0
1981-08-31 02:28:56.380 ,4,1,0.,24.0,0.,24.0,0.,24.0,0.,24.0
1981-08-31 02:29:20.380 ,4,0,0.,24.0,0.,24.0,0.,24.0,0.,24.0
1981-08-31 02:29:44.380 ,5,1,0.,24.0,0.,24.0,0.,24.0,0.,24.0
1981-08-31 02:30:08.380 ,5,0,1.,24.0,0.,24.0,0.,24.0,0.,24.0
1981-08-31 02:30:32.380 ,6,1,0.,24.0,0.,24.0,0.,24.0,0.,24.0
1981-08-31 02:30:56.380 ,6,0,0.,24.0,0.,24.0,0.,24.0,0.,24.0
1981-08-31 02:31:20.380 ,7,1,0.,24.0,0.,24.0,0.,24.0,0.,24.0
1981-08-31 02:31:44.380 ,7,0,0.,24.0,0.,24.0,0.,24.0,0.,24.0
1981-08-31 02:32:08.380 ,7,1,0.,24.0,0.,24.0,0.,24.0,0.,24.0
1981-08-31 02:32:32.380 ,7,0,0.,24.0,0.,24.0,0.,24.0,0.,24.0
1981-08-31 02:32:56.380 ,6,1,0.,24.0,0.,24.0,0.,24.0,0.,24.0
1981-08-31 02:33:20.380 ,6,0,0.,24.0,0.,24.0,0.,24.0,0.,24.0
1981-08-31 02:33:44.380 ,5,1,0.,24.0,0.,24.0,0.,24.0,0.,24.0
1981-08-31 02:34:08.380 ,5,0,0.,24.0,0.,24.0,0.,24.0,0.,24.0
1981-08-31 02:34:32.380 ,4,1,0.,24.0,0.,24.0,0.,24.0,0.,24.0
1981-08-31 02:34:56.380 ,4,0,0.,24.0,0.,24.0,0.,24.0,0.,24.0
1981-08-31 02:35:20.380 ,3,1,0.,24.0,0.,24.0,0.,24.0,0.,24.0
1981-08-31 02:35:44.380 ,2,1,0.,24.0,0.,24.0,0.,24.0,0.,24.0
1981-08-31 02:36:08.380 ,1,1,1.,24.0,0.,24.0,0.,24.0,0.,24.0
1981-08-31 02:36:32.380 ,0,1,0.,24.0,0.,24.0,0.,24.0,0.,24.0
1981-08-31 02:36:56.380 ,0,1,0.,24.0,0.,24.0,0.,24.0,0.,24.0
1981-08-31 02:37:20.380 ,1,1,0.,24.0,0.,24.0,0.,24.0,0.,24.0
1981-08-31 02:37:44.380 ,2,1,0.,24.0,0.,24.0,0.,24.0,0.,24.0
1981-08-31 02:38:08.380 ,3,1,0.,24.0,0.,24.0,0.,24.0,0.,24.0
1981-08-31 02:38:32.380 ,4,1,0.,24.0,0.,24.0,0.,24.0,0.,24.0
1981-08-31 02:38:56.380 ,5,1,0.,24.0,0.,24.0,0.,24.0,0.,24.0
1981-08-31 02:39:20.380 ,6,1,0.,24.0,0.,24.0,0.,24.0,0.,24.0
1981-08-31 02:39:44.380 ,7,1,0.,24.0,0.,24.0,0.,24.0,0.,24.0
1981-08-31 02:40:08.380 ,7,1,0.,24.0,0.,24.0,0.,24.0,0.,24.0
1981-08-31 02:40:32.380 ,6,1,0.,24.0,0.,24.0,0.,24.0,0.,24.0
1981-08-31 02:40:56.380 ,5,1,0.,24.0,0.,24.0,0.,24.0,0.,24.0
1981-08-31 02:41:20.380 ,4,1,0.,24.0,0.,24.0,0.,24.0,0.,24.0
1981-08-31 02:41:44.380 ,3,1,0.,24.0,0.,24.0,0.,24.0,0.,24.0